Terug naar catalogus

COSMOS 2535 DEB

ActiefSSO
NORAD 44631·DEBRIS·🇷🇺 Russia

Gelanceerd Jul 10, 2019 vanaf Plesetsk Cosmodrome

Loading…

Volgende Passages (komende 24 uur)

TLE

VersSource: Space-Track

Epoch: Sep 14, 2026, 13:19 UTC

1 44631U 19039H   26257.55496273  .00005418  00000-0  29055-3 0  9995
2 44631  97.5125 295.8949 0019957 110.7735 249.5638 15.15216162378476

Volg COSMOS 2535 DEB in realtime met AllMySat

Download on the App Store